* Astronomy

Members Login
Username 
 
Password 
    Remember Me  
Post Info TOPIC: Asteroid 2012 US169


L

Posts: 131433
Date:
Asteroid 2012 US169
Permalink  
 


Orbital elements:
2012 US169                                               Earth MOID = 0.2156 AU
Epoch 2012 Sept. 30.0 TT = JDT 2456200.5                MPC
M  24.19427              (2000.0)            P               Q
n   0.26691918     Peri.  329.70428     +0.75889263     +0.65108374
a   2.3890002      Node   349.64115     -0.58189150     +0.66892798
e   0.4873329      Incl.    4.18194     -0.29237691     +0.35864373
P   3.69           H   20.6           G   0.15           U   8

MPEC 2012 - U111



__________________
Page 1 of 1  sorted by
 
Quick Reply

Please log in to post quick replies.



Create your own FREE Forum
Report Abuse
Powered by ActiveBoard